Weather History for Provincetown, MA

Change the Weather History Date:

Wednesday, January 18, 2012

  Actual Average Record
Temperature  
Mean Temperature 37 °F -  
Max Temperature 48 °F 32 °F 55 °F (2006)
Min Temperature 26 °F 22 °F 3 °F (2003)
Degree Days  
Heating Degree Days 28    
Moisture  
Dew Point 24 °F    
Average Humidity 56    
Maximum Humidity 93    
Minimum Humidity 40    
Precipitation  
Precipitation 0.00 in - - ()
Sea Level Pressure  
Sea Level Pressure 29.75 in    
Wind  
Wind Speed 20 mph (West)    
Max Wind Speed 30 mph    
Max Gust Speed 39 mph    
Visibility 10 miles    
Events      
Averages and records for this station are not official NWS values.
T = Trace of Precipitation, MM = Missing Value Source: NWS Daily Summary

Daily Weather History Graph

Daily Weather History Graph

Search for Another Location

Airport:

Trip Planner

Search our weather history database for the weather conditions in past years. The results will help you decide how hot, cold, wet, or windy it might be!

Date:

Astronomy

Jan. 18, 2012 Rise Set
Actual Time 7:05 AM EST 4:37 PM EST
Civil Twilight 6:34 AM EST 5:08 PM EST
Nautical Twilight 6:00 AM EST 5:42 PM EST
Astronomical Twilight 5:26 AM EST 6:15 PM EST
Moon 2:31 AM EST (1/18) 12:13 PM EST (1/18)
Length of Visible Light 10h 33m
Length of Day
9h 31m
Waning Crescent, 25% of the Moon is Illuminated
Jan 18
Waning Crescent
Jan 23
New
Jan 30
First Quarter
Feb 7
Full
Feb 14
Last Quarter

Hourly Weather History & Observations

Time (EST) Temp. Windchill Dew Point Humidity Pressure Visibility Wind Dir Wind Speed Gust Speed Precip Events Conditions
12:15 AM 46.4 °F 39.2 °F 44.6 °F 93% 29.52 in 10.0 mi SW 18.4 mph 24.2 mph N/A   Overcast
12:35 AM 46.4 °F 39.5 °F 42.8 °F 87% 29.51 in 10.0 mi SW 17.3 mph 21.9 mph N/A   Overcast
12:55 AM 46.4 °F 39.5 °F 42.8 °F 87% 29.50 in 10.0 mi SW 17.3 mph - N/A   Overcast
1:15 AM 46.4 °F 40.1 °F 42.8 °F 87% 29.50 in 9.0 mi SSW 15.0 mph 20.7 mph N/A   Overcast
1:36 AM 46.4 °F 40.4 °F 42.8 °F 87% 29.49 in 9.0 mi SSW 13.8 mph - N/A   Scattered Clouds
2:15 AM 46.4 °F 40.7 °F 42.8 °F 87% 29.49 in 10.0 mi SSW 12.7 mph - N/A   Clear
2:35 AM 44.6 °F 39.7 °F 42.8 °F 93% 29.48 in 10.0 mi SSW 9.2 mph - N/A   Clear
2:55 AM 46.4 °F 41.9 °F 42.8 °F 87% 29.47 in 10.0 mi SW 9.2 mph - N/A   Clear
3:35 AM 48.2 °F - 44.6 °F 87% 29.44 in 10.0 mi West 18.4 mph 26.5 mph N/A   Clear
3:55 AM 48.2 °F - 42.8 °F 82% 29.45 in 10.0 mi WSW 20.7 mph 26.5 mph N/A   Clear
4:15 AM 48.2 °F - 42.8 °F 82% 29.46 in 10.0 mi WSW 17.3 mph 23.0 mph N/A   Clear
4:35 AM 48.2 °F - 42.8 °F 82% 29.47 in 10.0 mi WSW 19.6 mph 28.8 mph N/A   Clear
4:55 AM 48.2 °F - 41.0 °F 76% 29.49 in 10.0 mi West 24.2 mph 29.9 mph N/A   Clear
5:35 AM 48.2 °F - 39.2 °F 71% 29.53 in 10.0 mi West 20.7 mph 28.8 mph N/A   Clear
5:55 AM 46.4 °F 38.3 °F 35.6 °F 66% 29.55 in 10.0 mi West 23.0 mph 29.9 mph N/A   Scattered Clouds
6:15 AM 44.6 °F 35.1 °F 30.2 °F 57% 29.57 in 10.0 mi West 27.6 mph 39.1 mph N/A   Partly Cloudy
6:35 AM 44.6 °F 34.7 °F 28.4 °F 53% 29.59 in 10.0 mi West 29.9 mph 38.0 mph N/A   Clear
7:15 AM 42.8 °F 32.5 °F 26.6 °F 53% 29.62 in 10.0 mi West 28.8 mph 39.1 mph N/A   Clear
7:35 AM 42.8 °F 32.9 °F 24.8 °F 49% 29.63 in 10.0 mi West 26.5 mph 39.1 mph N/A   Clear
8:35 AM 41.0 °F 30.7 °F 23.0 °F 49% 29.69 in 10.0 mi West 25.3 mph 34.5 mph N/A   Clear
8:55 AM 39.2 °F 28.7 °F 23.0 °F 52% 29.70 in 10.0 mi West 23.0 mph 29.9 mph N/A   Clear
9:15 AM 39.2 °F 29.6 °F 23.0 °F 52% 29.72 in 10.0 mi West 19.6 mph 27.6 mph N/A   Clear
9:35 AM 39.2 °F 29.6 °F 23.0 °F 52% 29.73 in 10.0 mi West 19.6 mph 32.2 mph N/A   Clear
10:15 AM 39.2 °F 28.5 °F 21.2 °F 49% 29.75 in 10.0 mi WNW 24.2 mph 31.1 mph N/A   Clear
10:35 AM 39.2 °F 29.0 °F 21.2 °F 49% 29.75 in 10.0 mi WNW 21.9 mph 29.9 mph N/A   Clear
10:55 AM 39.2 °F 28.0 °F 19.4 °F 45% 29.75 in 10.0 mi WNW 26.5 mph 34.5 mph N/A   Clear
11:15 AM 39.2 °F 29.8 °F 21.2 °F 49% 29.75 in 10.0 mi West 18.4 mph 24.2 mph N/A   Clear
11:55 AM 39.2 °F 28.7 °F 21.2 °F 49% 29.76 in 10.0 mi West 23.0 mph 29.9 mph N/A   Scattered Clouds
12:15 PM 39.2 °F 29.0 °F 19.4 °F 45% 29.76 in 10.0 mi WNW 21.9 mph 31.1 mph N/A   Scattered Clouds
12:35 PM 39.2 °F 29.3 °F 19.4 °F 45% 29.77 in 10.0 mi West 20.7 mph 32.2 mph N/A   Partly Cloudy
12:55 PM 39.2 °F 29.3 °F 19.4 °F 45% 29.77 in 10.0 mi West 20.7 mph 35.7 mph N/A   Partly Cloudy
1:15 PM 39.2 °F 29.0 °F 17.6 °F 42% 29.78 in 10.0 mi West 21.9 mph 35.7 mph N/A   Clear
1:35 PM 39.2 °F 28.5 °F 19.4 °F 45% 29.79 in 10.0 mi West 24.2 mph 31.1 mph N/A   Clear
1:55 PM 39.2 °F 27.6 °F 17.6 °F 42% 29.80 in 10.0 mi WNW 28.8 mph 38.0 mph N/A   Clear
2:15 PM 39.2 °F 28.0 °F 17.6 °F 42% 29.81 in 10.0 mi WNW 26.5 mph 33.4 mph N/A   Clear
2:35 PM 37.4 °F 26.1 °F 17.6 °F 45% 29.82 in 10.0 mi West 24.2 mph 35.7 mph N/A   Clear
3:15 PM 37.4 °F 25.9 °F 15.8 °F 41% 29.85 in 10.0 mi West 25.3 mph 33.4 mph N/A   Partly Cloudy
3:35 PM 37.4 °F 26.4 °F 17.6 °F 45% 29.86 in 10.0 mi West 23.0 mph 29.9 mph N/A   Scattered Clouds
3:55 PM 35.6 °F 24.2 °F 15.8 °F 44% 29.88 in 10.0 mi WNW 21.9 mph 34.5 mph N/A   Scattered Clouds
4:15 PM 35.6 °F 24.2 °F 15.8 °F 44% 29.90 in 10.0 mi West 21.9 mph 32.2 mph N/A   Mostly Cloudy
4:35 PM 33.8 °F 21.6 °F 14.0 °F 44% 29.91 in 10.0 mi West 23.0 mph 29.9 mph N/A   Mostly Cloudy
4:55 PM 33.8 °F 21.0 °F 12.2 °F 41% 29.92 in 10.0 mi West 25.3 mph 33.4 mph N/A   Mostly Cloudy
5:15 PM 33.8 °F 21.0 °F 12.2 °F 41% 29.94 in 10.0 mi West 25.3 mph 31.1 mph N/A   Mostly Cloudy
5:35 PM 33.8 °F 21.6 °F 12.2 °F 41% 29.96 in 10.0 mi West 23.0 mph 31.1 mph N/A   Partly Cloudy
6:15 PM 33.8 °F 22.5 °F 12.2 °F 41% 29.99 in 10.0 mi WNW 19.6 mph 26.5 mph N/A   Mostly Cloudy
6:35 PM 32.0 °F 19.2 °F 12.2 °F 44% 30.00 in 10.0 mi NW 23.0 mph 31.1 mph N/A   Mostly Cloudy
6:55 PM 30.2 °F 17.8 °F 10.4 °F 44% 30.02 in 10.0 mi WNW 19.6 mph 29.9 mph N/A   Partly Cloudy
7:15 PM 30.2 °F 17.1 °F 10.4 °F 44% 30.03 in 10.0 mi NW 21.9 mph 28.8 mph N/A   Scattered Clouds
7:35 PM 30.2 °F 16.2 °F 10.4 °F 44% 30.05 in 10.0 mi NW 25.3 mph 34.5 mph N/A   Partly Cloudy
7:55 PM 30.2 °F 16.5 °F 8.6 °F 40% 30.07 in 10.0 mi WNW 24.2 mph 33.4 mph N/A   Clear
8:15 PM 28.4 °F 14.4 °F 6.8 °F 40% 30.08 in 10.0 mi NW 23.0 mph 33.4 mph N/A   Clear
8:55 PM 28.4 °F 14.1 °F 6.8 °F 40% 30.09 in 10.0 mi NNW 24.2 mph 32.2 mph N/A   Clear
9:15 PM 26.6 °F 11.4 °F 6.8 °F 43% 30.09 in 10.0 mi NW 25.3 mph 33.4 mph N/A   Clear
9:35 PM - - - N/A% 30.10 in 10.0 mi NW 19.6 mph 32.2 mph N/A   Clear
9:55 PM 26.6 °F 12.7 °F 6.8 °F 43% 30.11 in 10.0 mi NW 20.7 mph 28.8 mph N/A   Clear
10:35 PM 26.6 °F 12.4 °F 8.6 °F 47% 30.13 in 10.0 mi NW 21.9 mph 29.9 mph N/A   Clear
10:55 PM 26.6 °F 13.1 °F 8.6 °F 47% 30.14 in 10.0 mi NW 19.6 mph 28.8 mph N/A   Clear
11:35 PM 24.8 °F 11.9 °F 8.6 °F 50% 30.15 in 10.0 mi NNW 16.1 mph 24.2 mph N/A   Clear
11:55 PM 24.8 °F 12.4 °F 8.6 °F 50% 30.15 in 10.0 mi NW 15.0 mph 24.2 mph N/A   Clear